Regional Weather Roundup
Issued by NWS Upton, NY

Current Version | Previous Version | Graphics & Text | Print | Product List | Glossary Off
Versions: 1 2 3 4 5 6 7 8 9 10 11 12 13 14 15 16 17 18 19 20 21 22 23 24 25 26 27

000
ASUS41 KOKX 050904
RWROKX

REGIONAL WEATHER ROUNDUP
NATIONAL WEATHER SERVICE NEW YORK NY
500 AM EDT THU MAY 05 2016

NOTE: "FAIR" INDICATES FEW OR NO CLOUDS BELOW 12,000 FEET WITH NO
SIGNIFICANT WEATHER AND/OR OBSTRUCTIONS TO VISIBILITY.

NYZ071-072-176-178-NJZ106-104-051000-
NEW YORK CITY METRO AREA


CITY           SKY/WX    TMP DP  RH WIND       PRES   REMARKS
CENTRAL PARK   CLOUDY    47  43  86 NE6       29.73F
LAGUARDIA APRT CLOUDY    48  45  89 N12       29.71R
KENNEDY INTL   CLOUDY    47  43  86 N12       29.72R
NEWARK/LIBERTY CLOUDY    47  45  93 N12       29.71F
BRNX BOT. GARD   N/A     45  43  93 NW2       29.71F
TETERBORO      CLOUDY    47  43  86 NE3       29.71R FOG
$$

NYZ177-179-078>081-051000-
LONG ISLAND NEW YORK

CITY           SKY/WX    TMP DP  RH WIND       PRES   REMARKS
FARMINGDALE    CLOUDY    46  42  86 N13G18    29.70S
ISLIP          CLOUDY    46  41  82 N13G22    29.69R
SHIRLEY        CLOUDY    46  42  86 N9        29.70R
RIVERHEAD        N/A     46  43  87 E10       29.70R
WESTHAMPTON    CLOUDY    42  42 100 NE17      29.70R
EAST HAMPTON   CLOUDY    45  42  89 NE9G17    29.68S
MONTAUK POINT    N/A     46  43  89 N12G20    29.70R
$$

NYZ052-065-067-051000-
HUDSON VALLEY

CITY           SKY/WX    TMP DP  RH WIND       PRES   REMARKS
WHITE PLAINS   CLOUDY    45  42  89 N5        29.70S
NEWBURGH       CLOUDY    45  45 100 NE9       29.74F
MONTGOMERY     CLOUDY    47  43  86 NE8       29.72S
POUGHKEEPSIE   CLOUDY    48  42  80 NE5       29.73R
ALBANY         CLOUDY    47  44  90 N6        29.76S
$$

NJZ001-105-106-008-010-013-015-019>022-104-051000-
NEW JERSEY

CITY           SKY/WX    TMP DP  RH WIND       PRES   REMARKS
NEWARK/LIBERTY CLOUDY    47  45  93 N12       29.71F
TETERBORO      CLOUDY    47  43  86 NE3       29.71R FOG
CALDWELL       CLOUDY    46  29  51 NE6       29.72S
MORRISTOWN     CLOUDY    46  45  93 N3        29.72S FOG
SOMERVILLE     CLOUDY    48  43  82 N5        29.69F
SUSSEX         CLOUDY    46  42  86 NE8       29.72S
ANDOVER          N/A     45  43  93 NE6       29.71S
TRENTON        CLOUDY    47  44  90 NE7       29.69F
MILLVILLE      CLOUDY    48  44  86 NE10G18   29.66F
ATLANTIC CITY  CLOUDY    47  45  93 NE9       29.65F
WRIGHTSTOWN    CLOUDY    47  46  97 N9        29.65F
TOMS RIVER     CLOUDY    46  43  87 NE9       29.68F
BELMAR         CLOUDY    46  45  96 N7        29.69F FOG
$$

PAZ047>061-062-071-051000-
EASTERN PENNSYLVANIA

CITY           SKY/WX    TMP DP  RH WIND       PRES   REMARKS
PHILADELPHIA   CLOUDY    50  45  81 NE8       29.68F
ALLENTOWN      CLOUDY    48  43  82 NE7       29.71S
SCRANTON       CLOUDY    47  43  86 E3        29.71S
$$

CTZ002-004>006-009-010-012-RIZ004-006-007-MAZ004-011-015-051000-
SOUTHERN NEW ENGLAND
 IN CT

CITY           SKY/WX    TMP DP  RH WIND       PRES   REMARKS
BRADLEY INTL   CLOUDY    45  39  79 N12       29.73S
HARTFORD       CLOUDY    47  40  76 N13       29.73S
DANBURY        CLOUDY    45  40  82 N8        29.73R
WTRBRY/OXFORD    N/A     43  37  81 NE8G16    29.73R
BRIDGEPORT     CLOUDY    47  40  76 NE13      29.71R
MERIDEN        CLOUDY    46  40  79 N9        29.72S
NEW HAVEN      CLOUDY    46  40  79 N14       29.70S
CHESTER        CLOUDY    45  41  87 N10       29.70S
GROTON         CLOUDY    46  46 100 NE14      29.69S
WILLIMANTIC    CLOUDY    46  40  79 N13       29.72S

 IN RI

CITY           SKY/WX    TMP DP  RH WIND       PRES   REMARKS
PROVIDENCE     CLOUDY    45  42  89 N16       29.71S
BLOCK ISLAND   CLOUDY    45  42  89 NE16G28   29.68R
WESTERLY       CLOUDY    46  41  82 N9G23     29.70R

 IN MA

CITY           SKY/WX    TMP DP  RH WIND       PRES   REMARKS
BOSTON         CLOUDY    44  42  93 NE15G22   29.76S FOG
WORCESTER      CLOUDY    39  38  96 N9G17     29.72S FOG     WCI  33
WESTFIELD      CLOUDY    44  40  85 N12       29.74S
PROVINCETOWN   CLOUDY    45  44  97 NE15      29.71S FOG
NANTUCKET      LGT RAIN N/A N/A N/A N21G30    29.64S
$$

ANZ330-335-338-340-345-350-353-355-051000-
COASTAL MARINE OBSERVATIONS


STATION/POSITION TIME  SKY/WX   TEMP    WIND        PRES    VSBY  WAVE
                                AIR SEA DIR/SP/G                  HT/PER
                 (UTC)          (F)     (DEG/KT/KT) (MB)    (MI)  (FT/S)
NY HARB ENTRANCE 0750            48 50   30/ 16/ 19 1005.0          5/ 7
20S FIRE ISLAND  0750            46 48   30/ 17/ 19 1004.4          7/ 7
GREAT SOUTH BAY  0800            47 54   10/ 14/ 17   N/A
23 SSW MONTAUK P 0850            46 46   30/ 21/ 27 1003.5          6/ 6
15 E BARNEGAT LI 0822               50                N/A           7/ 8
HUDSON CANYON    0750            47 48              1002.7          7/ 6
KINGS POINT      0800            47 53              1006.1
EXECUTION ROCKS  NOT AVBL
CENTRAL LI SOUND 0800            47      30/ 16/ 19   N/A           2/ 3
EASTERN LI SOUND 0800            46 48   20/ 14/ 16   N/A
ROBBINS REEF     0800            48      10/ 12/ 14 1005.2
$$


>>>>>>>>>>>>>>>>>>>>>>>>>>>> KEY <<<<<<<<<<<<<<<<<<<<<<<<<<<
>                                                          <
>     SKY/WX - SKY CONDITION/PRESENT WEATHER               <
>     TMP    - TEMPERATURE IN FAHRENHEIT                   <
>     DP     - DEWPOINT IN FAHRENHEIT                      <
>     RH     - RELATIVE HUMIDITY IN PERCENT                <
>     WIND   - DIRECTION AND SPEED IN MPH                  <
>     PRES   - MEAN SEA LEVEL PRESSURE IN INCHES OF HG     <
>     WCI    - WIND CHILL INDEX                            <
>     VSB    - VISIBILITY IN MILES                         <
>     HX     - HEAT INDEX                                  <
>     TC     - TEMPERATURE IN CELSIUS                      <
>     VRB    - VARIABLE WIND DIRECTION                     <
>                                                          <
>>>>>>>>>>>>>>>>>>>>>>>>>>>> KEY <<<<<<<<<<<<<<<<<<<<<<<<<<<






USA.gov is the U.S. government's official web portal to all federal, state and local government web resources and services.